NOAA 16 DEB, 42398

Orbit data source: Space-Track

NOAA 16 DEB, 42398 is space debris in SSO originally from a launch on Thu, 21 Sep 2000 UTC launched from the Air Force Western Test Range (AFWTR). Debris objects in space refer to the collection of defunct objects orbiting the Earth. Examples of debris include non-operational satellites, rocket bodies, and fragments generated from explosions, collisions, or faulty payload assembly.

Loading next visibility...
Identifier
42398, 2000-055SS
Orbit
SSO
Country
Flag of USUS
Related business
Manufacturer
Unknown
Mission
Spacecraft
Bus & Motor
Unknown
Mass
Unknown
Launch date (UTC)
2000-09-21 (26 years ago)
Launch vehicle
Unknown
Launch site
Air Force Western Test Range (AFWTR)
Object type
Payload
Rocket body
Debris
Shape & HBR
Unknown shape, 0.1 m
Radar Cross Section
Medium (>0.1 m² and <1 m²)

Expand to show TLE details & history
Last TLE update: 1 week ago

TLE from 1 week ago
0 NOAA 16 DEB
1 42398U 00055SS  26166.73342538  .00002003  00000-0  10095-2 0  9994
2 42398  98.6528 171.9917 0028129 231.4381 128.4273 14.17248377528933
Epoch: 2026-06-15T17:36Z
TLE epoch observation values (Epoch: 2026-06-15T17:36:07.952Z)
Latitude
-0.00007°
Longitude
3.943°
Altitude
850.234 km
Speed
7.421 km/s
True Right ascension
11h 27m 58s
True Declination
0° 00' 00"
Sunlit
Object was in daylight at epoch
Visualization orbit readout
Latitude
Unknown
Longitude
Unknown
Altitude
Unknown
Speed
Unknown
Apparent Right ascension
Unknown
Apparent Declination
Unknown
Sunlit
N/A
Visualization observer readout
Local Sidereal Time
00:49:56
Azimuth
Unknown
Elevation
Unknown
Doppler factor
Unknown
Orbital elements
Apogee altitude
852.114 km
Perigee altitude
811.552 km
Semi-major axis
7,209.97 km
Eccentricity
0.00281
Inclination
98.6528°
RAAN
171.9917°
Arg. of periapsis
231.4381°
True anomaly
128.67926°
Mean anomaly
128.4273°
Eccentric anomaly
128.55334°
Mean motion
3.54522 °/min
Orbital period
101.55 mins
BSTAR
0.0010095
Loading maneuver chart data...
Computing Atmospheric mass density...

Documentation

Showing up to 5 results
|